Regional Weather Roundup
Issued by NWS Raleigh/Durham, NC

Home | Current Version | Previous Version | Text Only | Print | Product List | Glossary On
Versions: 1 2 3 4 5 6 7 8 9 10 11 12 13 14 15 16 17 18 19 20 21 22 23 24 25 26 27 28 29 30 31 32 33 34 35 36 37 38 39 40 41 42 43 44 45 46 47 48 49 50
000
ASUS42 KRAH 301110
RWRRAH
NORTH CAROLINA WEATHER ROUNDUP
NATIONAL WEATHER SERVICE RALEIGH NC
700 AM EDT TUE AUG 30 2016

NOTE: "FAIR" INDICATES FEW OR NO CLOUDS BELOW 12,000 FEET WITH NO
SIGNIFICANT WEATHER AND/OR OBSTRUCTIONS TO VISIBILITY.

NCZ001-053-055-056-065-067-301200-
WESTERN NORTH CAROLINA

CITY           SKY/WX    TMP DP  RH WIND       PRES   REMARKS
ASHEVILLE      MOCLDY    62  60  93 CALM      30.21R
JEFFERSON      FOG       60  60  99 CALM      30.25S VSB<1/4
MORGANTON      CLEAR     64  64 100 CALM      30.20R FOG
HICKORY        CLEAR     68  68 100 CALM      30.14R
RUTHERFORDTON    N/A     65  65 100 CALM      30.15S
MOUNT AIRY     CLEAR     67  65  93 CALM      30.17S
BOONE          CLEAR     57  57 100 CALM      30.26S FOG
$$

NCZ021-022-025-041-071-084-088-301200-
CENTRAL NORTH CAROLINA

CITY           SKY/WX    TMP DP  RH WIND       PRES   REMARKS
CHARLOTTE      PTCLDY    68  64  87 NW3       30.12R
GREENSBORO     PTCLDY    70  66  87 NE3       30.12S
WINSTON-SALEM  CLEAR     70  64  81 CALM      30.14S
RALEIGH-DURHAM PTCLDY    68  65  90 CALM      30.10R
FORT BRAGG     CLEAR     70  68  92 N5        30.07R
FAYETTEVILLE   CLEAR     73  67  81 N5        30.07R
BURLINGTON     CLEAR     68  66  93 CALM      30.11R
LAURINBURG     PTCLDY    70  67  90 N6        30.08R
$$

NCZ011-015-027-028-043-044-047-080-103-301200-
NORTHEASTERN NORTH CAROLINA

CITY           SKY/WX    TMP DP  RH WIND       PRES   REMARKS
ROCKY MT-WILSO CLEAR     68  66  93 N5        30.09R
GREENVILLE     CLEAR     64  64 100 N3        30.09R FOG
WASHINGTON     MOCLDY    67  67  97 N3        30.07R
ELIZABETH CITY CLEAR     73  71  93 NE9       30.08R
MANTEO         CLOUDY    78  76  92 E12       30.05S
CAPE HATTERAS  CLOUDY    80  76  87 NE9G17    30.01R
$$

NCZ078-087-090-091-093-098-101-301200-
SOUTHEASTERN NORTH CAROLINA

CITY           SKY/WX    TMP DP  RH WIND       PRES   REMARKS
LUMBERTON      CLEAR     72  70  93 N5        30.06R
GOLDSBORO      MOCLDY    69  69 100 NE3       30.06R
KINSTON        CLEAR     66  66 100 N5        30.08R
KENANSVILLE    PTCLDY    68  68 100 N5        30.07R
NEW BERN       MOCLDY    72  70  93 N5        30.06R
CHERRY POINT   CLOUDY    75  72  90 N9        30.05R
BEAUFORT       CLOUDY    76  74  93 N7        30.02R
JACKSONVILLE   PTCLDY    72  69  90 N7        30.05R
WILMINGTON     PTCLDY    72  70  93 N5        30.04R
$$




USA.gov is the U.S. government's official web portal to all federal, state and local government web resources and services.